Skip Page Navigation
NASA JPL Caltech
NASA Logo - Jet Propulsion Laboratory + View the NASA Portal
+ Center for Near-Earth Object Studies
JPL Home Earth Solar System Stars & Galaxies Technology
JPL Solar System Dynamics
BODIES ORBITS EPHEMERIDES TOOLS PHYSICAL DATA DISCOVERY FAQ SITE MAP
JPL Small-Body Database Browser
Search: [ help ]  
136730 (1995 UE59)
Classification: Main-belt Asteroid          SPK-ID: 2136730
Ephemeris | Orbit Diagram | Orbital Elements | Mission Design | Physical Parameters | Discovery Circumstances ]

[ show orbit diagram ]
Orbital Elements at Epoch 2459000.5 (2020-May-31.0) TDB
Reference: JPL 16 (heliocentric ecliptic J2000)
 Element Value Uncertainty (1-sigma)   Units 
e .204836922097361 4.3397e-08  
a 2.39092208231252 8.8122e-09 au
q 1.90117296199701 1.0477e-07 au
i 3.477719736117748 4.1329e-06 deg
node 84.91755086214408 8.5411e-05 deg
peri 259.6467011793443 8.6105e-05 deg
M 275.0493026552095 1.0901e-05 deg
tp 2459319.147862138328
(2021-Apr-14.64786214)
4.1574e-05 TDB
period 1350.350661680973
3.70
7.4655e-06
2.044e-08
d
yr
n .2665974181490435 1.4739e-09 deg/d
Q 2.880671202628029 1.0617e-08 au
  Orbit Determination Parameters
   # obs. used (total)      347  
   data-arc span      8952 days (24.51 yr)  
   first obs. used      1995-10-18  
   last obs. used      2020-04-21  
   planetary ephem.      DE431  
   SB-pert. ephem.      SB431-N16  
   condition code      0  
   norm. resid. RMS      .54697  
   source      ORB  
   producer      Otto Matic  
   solution date      2020-May-20 22:41:03  

Additional Information
 Earth MOID = .897401 au 
 Jupiter MOID = 2.5337 au 
 T_jup = 3.501 
[ show covariance matrix ]

Ephemeris | Orbit Diagram | Orbital Elements | Mission Design | Physical Parameters | Discovery Circumstances ]

Physical Parameter Table
Parameter Symbol Value Units Sigma Reference Notes
absolute magnitude H 16.9   n/a MPO436674  

136730 (1995 UE59)          Discovered 1995-Oct-18 by Spacewatch at Kitt Peak
Reference: 20061205/Numbers.arcLast Updated: 2006-12-13

Alternate Designations
 1995 UE59 = 2002 NJ42 
Ephemeris | Orbit Diagram | Orbital Elements | Mission Design | Physical Parameters | Discovery Circumstances ]
ABOUT SSD CREDITS/AWARDS PRIVACY/COPYRIGHT GLOSSARY LINKS
FirstGov 2020-Jul-07 01:17 UT
(server date/time)  
NASA Home Page
Site Manager:   Ryan S. Park
Webmaster  Alan B. Chamberlin